Location: East Guldeford
(50.9500°N, 0.7500°E)
Time: 17:23:50
(UTC+00:00)

EO 1 Del DPAF - Pass Details

Date: 12 May 2021
Orbit: 505 x 510 km, 98.0° (Epoch: 15 June)

Event Time Altitude Azimuth Distance (km) Brightness Sun altitude
Rises 23:48:47 0° 22° (NNE) 2,629 8.0 -20.7°
Reaches altitude 10° 23:51:02 10° 32° (NNE) 1,737 6.7 -20.7°
Maximum altitude 23:54:26 32° 97° (E) 887 4.3 -20.7°
Enters shadow 23:54:35 32° 102° (ESE) 890 4.2 -20.7°
